Time,TemperatureF,DewpointF,PressureIn,WindDirection,WindDirectionDegrees,WindSpeedMPH,WindSpeedGustMPH,Humidity,HourlyPrecipIn,Conditions,Clouds,dailyrainin,SoftwareType,DateUTC
2013-05-28 00:01:00,45.0,40.0,-100.00,South,178,5.0,14.0,84,-99.99,,,-99.99,,2013-05-28 07:01:00,
2013-05-28 00:11:00,45.0,40.0,-100.00,South,178,5.0,14.0,84,-99.99,,,-99.99,,2013-05-28 07:11:00,
2013-05-28 00:21:00,45.0,41.0,-100.00,South,169,4.0,11.0,87,-99.99,,,-99.99,,2013-05-28 07:21:00,
2013-05-28 00:32:00,45.0,41.0,-100.00,South,175,5.0,13.0,85,-99.99,,,-99.99,,2013-05-28 07:32:00,
2013-05-28 00:42:00,45.0,41.0,-100.00,South,175,5.0,13.0,85,-99.99,,,-99.99,,2013-05-28 07:42:00,
2013-05-28 00:52:00,45.0,41.0,-100.00,South,175,5.0,13.0,85,-99.99,,,-99.99,,2013-05-28 07:52:00,
2013-05-28 01:02:00,45.0,40.0,-100.00,South,171,4.0,12.0,82,-99.99,,,-99.99,,2013-05-28 08:02:00,
2013-05-28 01:11:00,45.0,40.0,-100.00,South,171,4.0,12.0,82,-99.99,,,-99.99,,2013-05-28 08:11:00,
2013-05-28 01:21:00,45.0,41.0,-100.00,South,171,5.0,14.0,84,-99.99,,,-99.99,,2013-05-28 08:21:00,
2013-05-28 01:32:00,45.0,41.0,-100.00,South,171,5.0,14.0,84,-99.99,,,-99.99,,2013-05-28 08:32:00,
2013-05-28 01:42:00,45.0,41.0,-100.00,SSE,158,4.0,14.0,86,-99.99,,,-99.99,,2013-05-28 08:42:00,
2013-05-28 01:52:00,45.0,41.0,-100.00,SSE,158,4.0,14.0,86,-99.99,,,-99.99,,2013-05-28 08:52:00,
2013-05-28 02:01:00,45.0,41.0,-100.00,SSE,150,5.0,15.0,85,-99.99,,,-99.99,,2013-05-28 09:01:00,
2013-05-28 02:11:00,45.0,41.0,-100.00,SSE,150,5.0,15.0,85,-99.99,,,-99.99,,2013-05-28 09:11:00,
2013-05-28 02:21:00,45.0,40.0,-100.00,South,176,6.0,15.0,84,-99.99,,,-99.99,,2013-05-28 09:21:00,
2013-05-28 02:33:00,45.0,40.0,-100.00,South,176,6.0,15.0,84,-99.99,,,-99.99,,2013-05-28 09:33:00,
2013-05-28 02:42:00,45.0,41.0,-100.00,SSE,158,7.0,15.0,85,-99.99,,,-99.99,,2013-05-28 09:42:00,
2013-05-28 02:54:00,44.0,40.0,-100.00,SSE,167,5.0,13.0,85,-99.99,,,-99.99,,2013-05-28 09:54:00,
2013-05-28 03:03:00,44.0,40.0,-100.00,SSE,167,5.0,13.0,85,-99.99,,,-99.99,,2013-05-28 10:03:00,
2013-05-28 03:12:00,44.0,40.0,-100.00,SSE,167,5.0,13.0,85,-99.99,,,-99.99,,2013-05-28 10:12:00,
2013-05-28 03:22:00,45.0,40.0,-100.00,SSE,168,6.0,15.0,83,-99.99,,,-99.99,,2013-05-28 10:22:00,
2013-05-28 03:32:00,45.0,40.0,-100.00,South,178,6.0,14.0,83,-99.99,,,-99.99,,2013-05-28 10:32:00,
2013-05-28 03:42:00,45.0,40.0,-100.00,South,178,6.0,14.0,83,-99.99,,,-99.99,,2013-05-28 10:42:00,
2013-05-28 03:53:00,45.0,40.0,-100.00,South,178,6.0,14.0,83,-99.99,,,-99.99,,2013-05-28 10:53:00,
2013-05-28 04:02:00,45.0,40.0,-100.00,South,172,5.0,17.0,83,-99.99,,,-99.99,,2013-05-28 11:02:00,
2013-05-28 04:11:00,45.0,40.0,-100.00,South,172,5.0,17.0,83,-99.99,,,-99.99,,2013-05-28 11:11:00,
2013-05-28 04:22:00,45.0,40.0,-100.00,South,172,6.0,17.0,84,-99.99,,,-99.99,,2013-05-28 11:22:00,
2013-05-28 04:32:00,44.0,41.0,-100.00,South,185,5.0,13.0,88,-99.99,,,-99.99,,2013-05-28 11:32:00,
2013-05-28 04:41:00,44.0,41.0,-100.00,South,185,5.0,13.0,88,-99.99,,,-99.99,,2013-05-28 11:41:00,
2013-05-28 04:52:00,44.0,41.0,-100.00,South,185,5.0,13.0,88,-99.99,,,-99.99,,2013-05-28 11:52:00,
2013-05-28 05:01:00,44.0,41.0,-100.00,SSW,208,4.0,12.0,90,-99.99,,,-99.99,,2013-05-28 12:01:00,
2013-05-28 05:11:00,44.0,41.0,-100.00,SSW,208,4.0,12.0,90,-99.99,,,-99.99,,2013-05-28 12:11:00,
2013-05-28 05:21:00,43.0,41.0,-100.00,South,188,5.0,13.0,91,-99.99,,,-99.99,,2013-05-28 12:21:00,
2013-05-28 05:31:00,43.0,41.0,-100.00,South,176,3.0,11.0,91,-99.99,,,-99.99,,2013-05-28 12:31:00,
2013-05-28 05:42:00,43.0,41.0,-100.00,South,176,3.0,11.0,91,-99.99,,,-99.99,,2013-05-28 12:42:00,
2013-05-28 05:52:00,43.0,41.0,-100.00,South,176,3.0,11.0,91,-99.99,,,-99.99,,2013-05-28 12:52:00,
2013-05-28 06:01:00,43.0,40.0,-100.00,South,182,4.0,9.0,88,-99.99,,,-99.99,,2013-05-28 13:01:00,
2013-05-28 06:11:00,43.0,40.0,-100.00,South,182,4.0,9.0,88,-99.99,,,-99.99,,2013-05-28 13:11:00,
2013-05-28 06:21:00,43.0,40.0,-100.00,SW,215,4.0,8.0,90,-99.99,,,-99.99,,2013-05-28 13:21:00,
2013-05-28 06:32:00,43.0,40.0,-100.00,SW,215,4.0,8.0,90,-99.99,,,-99.99,,2013-05-28 13:32:00,
2013-05-28 06:42:00,43.0,40.0,-100.00,South,189,4.0,9.0,88,-99.99,,,-99.99,,2013-05-28 13:42:00,
2013-05-28 06:52:00,43.0,40.0,-100.00,South,189,4.0,9.0,88,-99.99,,,-99.99,,2013-05-28 13:52:00,
2013-05-28 07:01:00,43.0,40.0,-100.00,SW,217,6.0,12.0,87,-99.99,,,-99.99,,2013-05-28 14:01:00,
2013-05-28 07:11:00,43.0,40.0,-100.00,SW,217,6.0,12.0,87,-99.99,,,-99.99,,2013-05-28 14:11:00,
2013-05-28 07:21:00,44.0,39.0,-100.00,South,174,5.0,13.0,84,-99.99,,,-99.99,,2013-05-28 14:21:00,
2013-05-28 07:32:00,44.0,40.0,-100.00,South,179,5.0,11.0,84,-99.99,,,-99.99,,2013-05-28 14:32:00,
2013-05-28 07:41:00,44.0,40.0,-100.00,South,179,5.0,11.0,84,-99.99,,,-99.99,,2013-05-28 14:41:00,
2013-05-28 07:52:00,44.0,40.0,-100.00,South,179,5.0,11.0,84,-99.99,,,-99.99,,2013-05-28 14:52:00,
2013-05-28 08:01:00,44.0,39.0,-100.00,South,169,4.0,11.0,82,-99.99,,,-99.99,,2013-05-28 15:01:00,
2013-05-28 08:11:00,44.0,39.0,-100.00,South,169,4.0,11.0,82,-99.99,,,-99.99,,2013-05-28 15:11:00,
2013-05-28 08:21:00,45.0,38.0,-100.00,South,169,5.0,12.0,77,-99.99,,,-99.99,,2013-05-28 15:21:00,
2013-05-28 08:32:00,45.0,38.0,-100.00,South,169,5.0,12.0,77,-99.99,,,-99.99,,2013-05-28 15:32:00,
2013-05-28 08:43:00,46.0,38.0,-100.00,SSE,161,4.0,11.0,74,-99.99,,,-99.99,,2013-05-28 15:43:00,
2013-05-28 08:53:00,46.0,38.0,-100.00,SSE,161,4.0,11.0,74,-99.99,,,-99.99,,2013-05-28 15:53:00,
2013-05-28 09:03:00,46.0,37.0,-100.00,SW,216,4.0,8.0,72,-99.99,,,-99.99,,2013-05-28 16:03:00,
2013-05-28 09:12:00,46.0,37.0,-100.00,SW,216,4.0,8.0,72,-99.99,,,-99.99,,2013-05-28 16:12:00,
2013-05-28 09:22:00,47.0,37.0,-100.00,South,188,5.0,12.0,68,-99.99,,,-99.99,,2013-05-28 16:22:00,
2013-05-28 09:33:00,48.0,36.0,-100.00,South,189,5.0,13.0,64,-99.99,,,-99.99,,2013-05-28 16:33:00,
2013-05-28 09:42:00,48.0,36.0,-100.00,South,189,5.0,13.0,64,-99.99,,,-99.99,,2013-05-28 16:42:00,
2013-05-28 09:52:00,48.0,36.0,-100.00,South,189,5.0,13.0,64,-99.99,,,-99.99,,2013-05-28 16:52:00,
2013-05-28 10:02:00,47.0,36.0,-100.00,WSW,239,7.0,16.0,65,-99.99,,,-99.99,,2013-05-28 17:02:00,
2013-05-28 10:12:00,47.0,36.0,-100.00,WSW,239,7.0,16.0,65,-99.99,,,-99.99,,2013-05-28 17:12:00,
2013-05-28 10:22:00,47.0,36.0,-100.00,WSW,250,9.0,15.0,64,-99.99,,,-99.99,,2013-05-28 17:22:00,
2013-05-28 10:32:00,47.0,36.0,-100.00,WSW,250,9.0,15.0,64,-99.99,,,-99.99,,2013-05-28 17:32:00,
2013-05-28 10:41:00,48.0,36.0,-100.00,WSW,254,9.0,15.0,62,-99.99,,,-99.99,,2013-05-28 17:41:00,
2013-05-28 10:52:00,48.0,36.0,-100.00,WSW,254,9.0,15.0,62,-99.99,,,-99.99,,2013-05-28 17:52:00,
2013-05-28 11:01:00,49.0,35.0,-100.00,WSW,251,8.0,14.0,59,-99.99,,,-99.99,,2013-05-28 18:01:00,
2013-05-28 11:11:00,49.0,35.0,-100.00,WSW,251,8.0,14.0,59,-99.99,,,-99.99,,2013-05-28 18:11:00,
2013-05-28 11:21:00,49.0,36.0,-100.00,WSW,250,9.0,15.0,59,-99.99,,,-99.99,,2013-05-28 18:21:00,
2013-05-28 11:32:00,49.0,36.0,-100.00,WSW,250,9.0,15.0,59,-99.99,,,-99.99,,2013-05-28 18:32:00,
2013-05-28 11:42:00,50.0,35.0,-100.00,WSW,247,9.0,16.0,57,-99.99,,,-99.99,,2013-05-28 18:42:00,
2013-05-28 11:52:00,50.0,35.0,-100.00,WSW,247,9.0,16.0,57,-99.99,,,-99.99,,2013-05-28 18:52:00,
2013-05-28 12:01:00,50.0,35.0,-100.00,WSW,254,10.0,18.0,57,-99.99,,,-99.99,,2013-05-28 19:01:00,
2013-05-28 12:11:00,50.0,35.0,-100.00,WSW,254,10.0,18.0,57,-99.99,,,-99.99,,2013-05-28 19:11:00,
2013-05-28 12:21:00,50.0,35.0,-100.00,SW,236,10.0,17.0,55,-99.99,,,-99.99,,2013-05-28 19:21:00,
2013-05-28 12:32:00,50.0,35.0,-100.00,SW,236,10.0,17.0,55,-99.99,,,-99.99,,2013-05-28 19:32:00,
2013-05-28 12:41:00,50.0,34.0,-100.00,WSW,248,10.0,16.0,54,-99.99,,,-99.99,,2013-05-28 19:41:00,
2013-05-28 12:52:00,50.0,34.0,-100.00,WSW,248,10.0,16.0,54,-99.99,,,-99.99,,2013-05-28 19:52:00,
2013-05-28 13:01:00,52.0,35.0,-100.00,WSW,257,11.0,21.0,52,-99.99,,,-99.99,,2013-05-28 20:01:00,
2013-05-28 13:11:00,52.0,35.0,-100.00,WSW,257,11.0,21.0,52,-99.99,,,-99.99,,2013-05-28 20:11:00,
2013-05-28 13:22:00,52.0,35.0,-100.00,WSW,243,11.0,19.0,51,-99.99,,,-99.99,,2013-05-28 20:22:00,
2013-05-28 13:32:00,52.0,32.0,-100.00,WSW,240,10.0,18.0,45,-99.99,,,-99.99,,2013-05-28 20:32:00,
2013-05-28 13:42:00,52.0,32.0,-100.00,WSW,240,10.0,18.0,45,-99.99,,,-99.99,,2013-05-28 20:42:00,
2013-05-28 13:52:00,52.0,36.0,-100.00,WSW,246,12.0,17.0,53,-99.99,,,-99.99,,2013-05-28 20:52:00,
2013-05-28 14:01:00,52.0,36.0,-100.00,WSW,246,12.0,17.0,53,-99.99,,,-99.99,,2013-05-28 21:01:00,
2013-05-28 14:11:00,52.0,36.0,-100.00,WSW,246,12.0,17.0,53,-99.99,,,-99.99,,2013-05-28 21:11:00,
2013-05-28 14:21:00,54.0,34.0,-100.00,WSW,240,11.0,19.0,46,-99.99,,,-99.99,,2013-05-28 21:21:00,
2013-05-28 14:33:00,54.0,34.0,-100.00,WSW,240,11.0,19.0,46,-99.99,,,-99.99,,2013-05-28 21:33:00,
2013-05-28 14:43:00,54.0,33.0,-100.00,WSW,241,11.0,18.0,46,-99.99,,,-99.99,,2013-05-28 21:43:00,
2013-05-28 14:53:00,53.0,32.0,-100.00,WSW,246,11.0,18.0,45,-99.99,,,-99.99,,2013-05-28 21:53:00,
2013-05-28 15:02:00,53.0,32.0,-100.00,WSW,246,11.0,18.0,45,-99.99,,,-99.99,,2013-05-28 22:02:00,
2013-05-28 15:12:00,53.0,32.0,-100.00,WSW,246,11.0,18.0,45,-99.99,,,-99.99,,2013-05-28 22:12:00,
2013-05-28 15:22:00,53.0,32.0,-100.00,WSW,246,11.0,18.0,45,-99.99,,,-99.99,,2013-05-28 22:22:00,
2013-05-28 15:42:00,54.0,33.0,-100.00,WSW,246,10.0,15.0,44,-99.99,,,-99.99,,2013-05-28 22:42:00,
2013-05-28 15:52:00,54.0,33.0,-100.00,WSW,246,10.0,15.0,44,-99.99,,,-99.99,,2013-05-28 22:52:00,
2013-05-28 16:02:00,54.0,34.0,-100.00,WSW,247,9.0,14.0,47,-99.99,,,-99.99,,2013-05-28 23:02:00,
2013-05-28 16:11:00,54.0,34.0,-100.00,WSW,247,9.0,14.0,47,-99.99,,,-99.99,,2013-05-28 23:11:00,
2013-05-28 16:21:00,55.0,32.0,-100.00,WSW,246,11.0,17.0,42,-99.99,,,-99.99,,2013-05-28 23:21:00,
2013-05-28 16:32:00,54.0,32.0,-100.00,WSW,243,12.0,16.0,42,-99.99,,,-99.99,,2013-05-28 23:32:00,
2013-05-28 16:42:00,54.0,32.0,-100.00,WSW,243,12.0,16.0,42,-99.99,,,-99.99,,2013-05-28 23:42:00,
2013-05-28 16:52:00,54.0,32.0,-100.00,WSW,243,12.0,16.0,42,-99.99,,,-99.99,,2013-05-28 23:52:00,
2013-05-28 17:02:00,54.0,36.0,-100.00,WSW,240,9.0,15.0,49,-99.99,,,-99.99,,2013-05-29 00:02:00,
2013-05-28 17:11:00,54.0,36.0,-100.00,WSW,240,9.0,15.0,49,-99.99,,,-99.99,,2013-05-29 00:11:00,
2013-05-28 17:21:00,55.0,33.0,-100.00,WSW,237,9.0,15.0,43,-99.99,,,-99.99,,2013-05-29 00:21:00,
2013-05-28 17:32:00,55.0,33.0,-100.00,WSW,237,9.0,15.0,43,-99.99,,,-99.99,,2013-05-29 00:32:00,
2013-05-28 17:41:00,56.0,32.0,-100.00,WSW,251,10.0,14.0,41,-99.99,,,-99.99,,2013-05-29 00:41:00,
2013-05-28 17:52:00,56.0,32.0,-100.00,WSW,251,10.0,14.0,41,-99.99,,,-99.99,,2013-05-29 00:52:00,
2013-05-28 18:01:00,56.0,33.0,-100.00,WSW,251,9.0,13.0,42,-99.99,,,-99.99,,2013-05-29 01:01:00,
2013-05-28 18:11:00,56.0,33.0,-100.00,WSW,251,9.0,13.0,42,-99.99,,,-99.99,,2013-05-29 01:11:00,
2013-05-28 18:22:00,55.0,33.0,-100.00,WSW,247,9.0,14.0,43,-99.99,,,-99.99,,2013-05-29 01:22:00,
2013-05-28 18:32:00,56.0,35.0,-100.00,WSW,244,8.0,14.0,46,-99.99,,,-99.99,,2013-05-29 01:32:00,
2013-05-28 18:41:00,56.0,35.0,-100.00,WSW,244,8.0,14.0,46,-99.99,,,-99.99,,2013-05-29 01:41:00,
2013-05-28 18:52:00,54.0,34.0,-100.00,WSW,251,8.0,15.0,46,-99.99,,,-99.99,,2013-05-29 01:52:00,
2013-05-28 19:02:00,54.0,34.0,-100.00,WSW,251,8.0,15.0,46,-99.99,,,-99.99,,2013-05-29 02:02:00,
2013-05-28 19:12:00,54.0,34.0,-100.00,WSW,251,8.0,15.0,46,-99.99,,,-99.99,,2013-05-29 02:12:00,
2013-05-28 19:21:00,54.0,34.0,-100.00,West,261,7.0,13.0,47,-99.99,,,-99.99,,2013-05-29 02:21:00,
2013-05-28 19:32:00,54.0,36.0,-100.00,West,263,7.0,13.0,51,-99.99,,,-99.99,,2013-05-29 02:32:00,
2013-05-28 19:42:00,54.0,36.0,-100.00,West,263,7.0,13.0,51,-99.99,,,-99.99,,2013-05-29 02:42:00,
2013-05-28 19:52:00,54.0,36.0,-100.00,West,263,7.0,13.0,51,-99.99,,,-99.99,,2013-05-29 02:52:00,
2013-05-28 20:01:00,53.0,36.0,-100.00,WSW,257,6.0,12.0,52,-99.99,,,-99.99,,2013-05-29 03:01:00,
2013-05-28 20:11:00,53.0,36.0,-100.00,WSW,257,6.0,12.0,52,-99.99,,,-99.99,,2013-05-29 03:11:00,
2013-05-28 20:21:00,53.0,38.0,-100.00,WSW,251,5.0,11.0,58,-99.99,,,-99.99,,2013-05-29 03:21:00,
2013-05-28 20:33:00,53.0,38.0,-100.00,WSW,251,5.0,11.0,58,-99.99,,,-99.99,,2013-05-29 03:33:00,
2013-05-28 20:43:00,53.0,38.0,-100.00,WSW,251,5.0,11.0,58,-99.99,,,-99.99,,2013-05-29 03:43:00,
2013-05-28 21:02:00,50.0,39.0,-100.00,West,260,4.0,7.0,68,-99.99,,,-99.99,,2013-05-29 04:02:00,
2013-05-28 21:12:00,50.0,39.0,-100.00,West,260,4.0,7.0,68,-99.99,,,-99.99,,2013-05-29 04:12:00,
2013-05-28 21:23:00,49.0,40.0,-100.00,West,267,2.0,6.0,70,-99.99,,,-99.99,,2013-05-29 04:23:00,
2013-05-28 21:33:00,50.0,39.0,-100.00,SW,227,3.0,7.0,67,-99.99,,,-99.99,,2013-05-29 04:33:00,
2013-05-28 21:42:00,50.0,39.0,-100.00,SW,227,3.0,7.0,67,-99.99,,,-99.99,,2013-05-29 04:42:00,
2013-05-28 21:52:00,50.0,39.0,-100.00,SW,227,3.0,7.0,67,-99.99,,,-99.99,,2013-05-29 04:52:00,
2013-05-28 22:02:00,50.0,38.0,-100.00,SSE,151,3.0,10.0,63,-99.99,,,-99.99,,2013-05-29 05:02:00,
2013-05-28 22:12:00,50.0,38.0,-100.00,SSE,151,3.0,10.0,63,-99.99,,,-99.99,,2013-05-29 05:12:00,
2013-05-28 22:22:00,50.0,38.0,-100.00,South,182,3.0,11.0,64,-99.99,,,-99.99,,2013-05-29 05:22:00,
2013-05-28 22:32:00,50.0,38.0,-100.00,SSE,158,4.0,9.0,62,-99.99,,,-99.99,,2013-05-29 05:32:00,
2013-05-28 22:42:00,50.0,38.0,-100.00,SSE,158,4.0,9.0,62,-99.99,,,-99.99,,2013-05-29 05:42:00,
2013-05-28 22:52:00,50.0,37.0,-100.00,SSE,168,2.0,8.0,61,-99.99,,,-99.99,,2013-05-29 05:52:00,
2013-05-28 23:01:00,50.0,37.0,-100.00,SSE,168,2.0,8.0,61,-99.99,,,-99.99,,2013-05-29 06:01:00,
2013-05-28 23:11:00,50.0,37.0,-100.00,SSE,168,2.0,8.0,61,-99.99,,,-99.99,,2013-05-29 06:11:00,
2013-05-28 23:21:00,49.0,37.0,-100.00,SSW,202,3.0,9.0,63,-99.99,,,-99.99,,2013-05-29 06:21:00,
2013-05-28 23:31:00,49.0,37.0,-100.00,SSW,202,3.0,9.0,63,-99.99,,,-99.99,,2013-05-29 06:31:00,
2013-05-28 23:42:00,49.0,37.0,-100.00,South,181,4.0,9.0,62,-99.99,,,-99.99,,2013-05-29 06:42:00,
2013-05-28 23:52:00,49.0,37.0,-100.00,South,181,4.0,9.0,62,-99.99,,,-99.99,,2013-05-29 06:52:00,